Location: Sternwarte ZA, Rosenfeld-Brittheim
(48.2889°N, 8.6789°E)
Time: 21:59:42
(UTC+02:00)

Tiangong - Visible Passes

Search period start: 24 September 2021 00:00
Search period end: 04 October 2021 00:00
Orbit: 382 x 385 km, 41.5° (Epoch: 24 September)

Date Brightness Start Highest point End Pass type
(mag) Time Alt. Az. Time Alt. Az. Time Alt. Az.
27 Sep 3.6 06:37:00 10° SSW 06:38:57 15° SSE 06:40:54 10° ESE visible
28 Sep 3.8 05:38:26 10° S 05:39:18 11° SSE 05:40:21 10° SE visible
29 Sep 3.1 06:13:41 12° SSW 06:15:42 19° SSE 06:18:04 10° ESE visible
30 Sep 3.6 05:16:41 15° SSE 05:16:41 15° SSE 05:17:58 10° ESE visible
30 Sep 2.8 06:49:37 10° SW 06:52:14 23° S 06:54:51 10° ESE visible
01 Oct 2.7 05:51:51 21° SSW 05:52:29 22° S 05:55:01 10° ESE visible
02 Oct 4.1 04:54:49 11° ESE 04:54:49 11° ESE 04:55:05 10° ESE visible
02 Oct 2.7 06:27:01 13° SW 06:29:01 23° S 06:31:36 10° SE visible
03 Oct 3.0 05:30:00 21° SSE 05:30:00 21° SSE 05:31:52 10° ESE visible
